Skip Page Navigation
NASA JPL Caltech
NASA Logo - Jet Propulsion Laboratory + View the NASA Portal
+ Center for Near-Earth Object Studies
JPL Home Earth Solar System Stars & Galaxies Technology
JPL Solar System Dynamics
BODIES ORBITS EPHEMERIDES TOOLS PHYSICAL DATA DISCOVERY FAQ SITE MAP
IMPORTANT: The SSD Announcement email list is now available. Major changes are coming in the near future, including possible hostname and/or URL changes. To be notified of such changes, subscribe to this email list.

Please visit this page for more details.


JPL Small-Body Database Browser
Search: [ help ]  
146837 (2002 AN41)
Classification: Main-belt Asteroid          SPK-ID: 2146837
Ephemeris | Orbit Diagram | Orbital Elements | Mission Design | Physical Parameters | Discovery Circumstances | Close-Approach Data ]

[ show orbit diagram ]
Orbital Elements at Epoch 2458600.5 (2019-Apr-27.0) TDB
Reference: JPL 11 (heliocentric ecliptic J2000)
 Element Value Uncertainty (1-sigma)   Units 
e .1813526757599172 5.251e-08  
a 3.107998450811624 2.9861e-08 au
q 2.544354615499259 1.5974e-07 au
i 10.43491715675601 7.1826e-06 deg
node 297.7745927800499 4.0056e-05 deg
peri 151.2904757472984 4.8128e-05 deg
M 82.09529327802063 2.7139e-05 deg
tp 2458144.110782613475
(2018-Jan-25.61078261)
0.00014711 TDB
period 2001.334201983259
5.48
2.8843e-05
7.897e-08
d
yr
n .1798800018723766 2.5924e-09 deg/d
Q 3.67164228612399 3.5277e-08 au
  Orbit Determination Parameters
   # obs. used (total)      342  
   data-arc span      6784 days (18.57 yr)  
   first obs. used      2000-10-03  
   last obs. used      2019-05-01  
   planetary ephem.      DE431  
   SB-pert. ephem.      SB431-N16  
   condition code      0  
   norm. resid. RMS      .5558  
   source      ORB  
   producer      Otto Matic  
   solution date      2019-Jul-13 10:26:22  

Additional Information
 Earth MOID = 1.56657 au 
 Jupiter MOID = 1.54625 au 
 T_jup = 3.169 
[ show covariance matrix ]

Ephemeris | Orbit Diagram | Orbital Elements | Mission Design | Physical Parameters | Discovery Circumstances | Close-Approach Data ]

Physical Parameter Table
Parameter Symbol Value Units Sigma Reference Notes
absolute magnitude H 15.0   n/a MPO257678  
diameter diameter 7.009 km 1.440 urn:nasa:pds:neowise_diameters_albedos::2.0[mainbelt] (http://adsabs.harvard.edu/abs/2011ApJ...741...68M)  
geometric albedo albedo 0.047   0.022 urn:nasa:pds:neowise_diameters_albedos::2.0[mainbelt] (http://adsabs.harvard.edu/abs/2011ApJ...741...68M)  

146837 (2002 AN41)          Discovered 2002-Jan-09 by LINEAR at Socorro
Reference: 20070106/Numbers.arcLast Updated: 2007-01-09

[ show close-approach data ]
Ephemeris | Orbit Diagram | Orbital Elements | Mission Design | Physical Parameters | Discovery Circumstances | Close-Approach Data ]
ABOUT SSD CREDITS/AWARDS PRIVACY/COPYRIGHT GLOSSARY LINKS
FirstGov 2019-Dec-10 22:07 UT
(server date/time)  
NASA Home Page
Site Manager:   Ryan S. Park
Webmaster  Alan B. Chamberlin